カタログに戻る

STARLINK-3818

運用中通信VLEO
NORAD 52340·PAYLOAD·🇺🇸 United States

打ち上げ Apr 29, 2022 から Cape Canaveral Space Force Station

Loading…

次のパス (今後24時間)

TLE

最新Source: CelesTrak SupGP

元期: Sep 15, 2026, 01:14 UTC

1 52340C 22045K   26258.05187500 -.00071137  00000+0 -21007-2 0  2586
2 52340  53.1586  54.8597 0001163  78.0640 123.1748 15.34441583    13

AllMySatでSTARLINK-3818をリアルタイム追跡

Download on the App Store